This demonstration page uses our WeatherBlox Daily Observations layout. Learn more.

Left ArrowRight Arrow

39.29038, -76.61219

Hourly Observations for June 30, 2022

Temp ( °F °C ) Dew Point ( °F °C ) Humidity (%) Winds ( mph kmh ) Pressure ( in mb ) Visibility ( mi km ) Precip ( " mm )
12:54 am 00:54 Partly Cloudy 73 22.8 65 18.3 76 76 NNW 6 9 30.20 1023 10 16 0.00 0.00
1:54 am 01:54 Mostly Cloudy 74 23.3 65 18.3 74 74 Calm 30.21 1023 10 16 0.00 0.00
2:54 am 02:54 Partly Cloudy 74 23.3 65 18.3 74 74 SSW 6 9 30.19 1023 10 16 0.00 0.00
3:54 am 03:54 Clear 71 21.7 65 18.3 81 81 SW 3 6 30.19 1022 10 16 0.00 0.00
4:54 am 04:54 Clear 67 19.4 64 17.8 91 91 SW 3 6 30.19 1022 10 16 0.00 0.00
5:54 am 05:54 Mostly Sunny 68 20 64 17.8 87 87 W 3 6 30.20 1023 10 16 0.00 0.00
6:54 am 06:54 Mostly Sunny 71 21.7 66 18.9 84 84 VRB 5 7 30.21 1023 10 16 0.00 0.00
7:54 am 07:54 Mostly Sunny 76 24.4 67 19.4 74 74 Calm 30.22 1023 10 16 0.00 0.00
8:54 am 08:54 Mostly Sunny 81 27.2 65 18.3 58 58 Calm 30.22 1023 10 16 0.00 0.00
9:54 am 09:54 Mostly Sunny 86 30 58 14.4 39 39 NNE 5 7 30.22 1023 10 16 0.00 0.00
10:54 am 10:54 Mostly Sunny 88 31.1 55 12.8 33 33 VRB 7 11 30.22 1023 10 16 0.00 0.00
11:54 am 11:54 Mostly Sunny 88 31.1 54 12.2 31 31 Calm 30.22 1023 10 16 0.00 0.00
12:54 pm 12:54 Partly Cloudy 89 31.7 54 12.2 30 30 E 7 11 30.21 1023 10 16 0.00 0.00
1:54 pm 13:54 Partly Cloudy 90 32.2 53 11.7 28 28 NE 9 15 30.18 1022 10 16 0.00 0.00
2:54 pm 14:54 Partly Cloudy 90 32.2 52 11.1 27 27 SE 6 9 30.16 1021 10 16 0.00 0.00
3:54 pm 15:54 Mostly Sunny 90 32.2 53 11.7 28 28 VRB 5 7 30.14 1021 10 16 0.00 0.00
4:54 pm 16:54 Mostly Sunny 89 31.7 57 13.9 34 34 VRB 5 7 30.12 1020 10 16 0.00 0.00
5:54 pm 17:54 Mostly Sunny 89 31.7 60 15.6 38 38 VRB 5 7 30.12 1020 10 16 0.00 0.00
6:54 pm 18:54 Mostly Sunny 88 31.1 61 16.1 40 40 SSE 7 11 30.11 1020 10 16 0.00 0.00
7:54 pm 19:54 Mostly Sunny 85 29.4 63 17.2 48 48 SSE 7 11 30.12 1020 10 16 0.00 0.00
8:54 pm 20:54 Mostly Clear 82 27.8 63 17.2 53 53 SSE 7 11 30.12 1020 10 16 0.00 0.00
9:54 pm 21:54 Clear 80 26.7 67 19.4 64 64 SSE 5 7 30.12 1020 10 16 0.00 0.00
10:54 pm 22:54 Clear 78 25.6 69 20.6 74 74 SSE 3 6 30.13 1020 10 16 0.00 0.00
11:54 pm 23:54 Clear 77 25 70 21.1 79 79 SSE 3 6 30.13 1020 10 16 0.00 0.00

Powered by AerisWeather